Satellite: TechEdSat
Catalog number: 38854
Epoch time:      12361.92719620
Element set:      98
Inclination:      051.6451 deg
RA of node:       241.1692 deg
Eccentricity:    0.0015398
Arg of perigee:   105.3498 deg
Mean anomaly:     254.9198 deg
Mean motion:   15.60943850 rev/day
Decay rate:     5.3489e-04 rev/day^2
Epoch rev:            1295
Checksum:              329

Satellite: F 1
Catalog number: 38855
Epoch time:      12362.12712913
Element set:     101
Inclination:      051.6448 deg
RA of node:       240.2583 deg
Eccentricity:    0.0015756
Arg of perigee:   107.2941 deg
Mean anomaly:     252.9774 deg
Mean motion:   15.60669194 rev/day
Decay rate:     5.1432e-04 rev/day^2
Epoch rev:            1287
Checksum:              295

Satellite: WeWish
Catalog number: 38856
Epoch time:      12362.88956183
Element set:     116
Inclination:      051.6436 deg
RA of node:       234.8406 deg
Eccentricity:    0.0017162
Arg of perigee:   112.3072 deg
Mean anomaly:     247.9747 deg
Mean motion:   15.66611068 rev/day
Decay rate:    1.04741e-03 rev/day^2
Epoch rev:            1301
Checksum:              293

/EX




More information about the Keps mailing list